格洛纳斯-745 COSMOS 1988 [GLONASS]

导读 | 星芒AI

COSMOS 1988 是一颗俄罗斯 GLONASS 卫星,于1988年发射,属于苏联/俄罗斯的全球导航卫星系统。该卫星运行在中地球轨道,用于提供精确的定位和时间同步服务。作为 GLONASS 系统的早期成员,它为俄罗斯及其盟国的军事和民用应用提供了关键支持。COSMOS 1988 在轨期间为 GLONASS 系统的发展和验证做出了贡献,最终退役并进入长期轨道运行状态。

基本信息
目录编号:
19750
目录名称:
COSMOS 1988 (GLONASS)
国际标识:
1989-001B
轨道中心:
EARTH
卫星名称:
格洛纳斯-745
卫星全名:
格洛纳斯-745 COSMOS 1988 [GLONASS]
卫星状态:
在轨 (已飞行13444 天)
发射日期:
1989-01-10 UTC
国别 :
俄罗斯(独联体) (CIS)
星等 :
--
轨道信息
数据来源 国际轨道数据 AOE轨道数据
星历时间 2025-10-31T19:37:53+0800
18小时前
查看轨道信息
2025-10-27T03:00:00+0800
5天前
查看轨道信息
半长轴 25508.057km 25508.033km
偏心率 0.0015218 0.0015257
轨道倾角 64.815° 64.812°
近地点辐角 217.580° 217.534°
升交点赤经 80.455° 80.616°
平近点角 144.362° 144.133°
近地点 19091.103km 19090.98km
远地点 19168.741km 19168.816km
周期 675.734分钟 675.733分钟
每日圈数 2.131016 2.131019
详细信息
平衡模式:
三轴稳定
覆盖范围:
全球
运营商:
列舍特涅夫卫星信息系统
运营商所在国:
俄罗斯
制造商(研发单位):
列舍特涅夫卫星信息系统
制造商所在国:
俄罗斯
使用方式:
暂无
卫星简介
格洛纳斯(GLONASS )是苏联/俄罗斯研制卫星导航系统。标准配置为24颗卫星,其中18颗卫星就能保证该系统为俄罗斯境内用户提供全部服务。该卫星已退役。
2D轨道图
3D轨道图
轨道高度分析图
轨道倾角分析图
轨道综合分析图
查看轨道综合分析图